User: anonymous   Login
Location: Igri�s
(42.2144°N, 0.4320°W)
Time: 12:02:21
(UTC+00:00)
Language:

NOSS 3-2 (C) - Orbit

View from above orbital plane
View from above orbital plane
View from above satellite
View from above satellite

Ground track
Ground track

The orbit data is extracted from the following two-line orbital elements,

1 28097U 03054C   22128.87955208 0.00000000  00000-0  00000-0 0    00
2 28097  63.4050  73.2962 0461535   0.5846 359.4154 13.40796715    06
Epoch (UTC): 08 May 2022 21:06:33
Eccentricity: 0.0461535
inclination: 63.4050°
perigee height: 761 km
apogee height: 1452 km
right ascension of ascending node: 73.2962°
argument of perigee: 0.5846°
revolutions per day: 13.40796715
mean anomaly at epoch: 359.4154°
orbit number at epoch: 0

The dashed part of the orbit path shows where the satellite is in the earth's shadow,  

DLR